CW7448 Weather Reports


time (UTC)temp
F
wind
direction
speed
knots
gust
knots
rain 1hr
in
rain 24hr
in
rain mn
in
humidity
%
barometer
mb
20260504231505 60 352 3.5 9.6 0.00 0.00 0.00 53 1009.2
20260504231003 60 291 4.3 9.6 0.00 0.00 0.00 53 1009.2
20260504230503 61 347 3.5 7.8 0.00 0.00 0.00 53 1009.1
20260504230016 61 348 3.5 7.8 0.00 0.00 0.00 53 1009.0
20260504225506 61 331 1.7 7.8 0.00 0.00 0.00 53 1009.0
20260504225007 62 338 2.6 6.1 0.00 0.00 0.00 52 1009.0
20260504224504 62 254 2.6 7.8 0.00 0.00 0.00 52 1008.9
20260504224004 62 333 1.7 7.8 0.00 0.00 0.00 52 1008.9
20260504223505 62 316 1.7 7.8 0.00 0.00 0.00 52 1008.9
20260504223015 62 295 2.6 9.6 0.00 0.00 0.00 51 1008.9
20260504222504 62 285 5.2 9.6 0.00 0.00 0.00 51 1008.9
20260504222009 62 207 1.7 7.8 0.00 0.00 0.00 51 1008.9
20260504221521 63 178 3.5 7.8 0.00 0.00 0.00 51 1008.9
20260504221003 64 338 1.7 9.6 0.00 0.00 0.00 48 1008.8
20260504220508 64 339 1.7 9.6 0.00 0.00 0.00 48 1008.8
20260504220031 64 56 2.6 10.4 0.00 0.00 0.00 49 1008.7
20260504215505 65 283 1.7 10.4 0.00 0.00 0.00 49 1008.6
20260504215004 65 275 2.6 11.3 0.00 0.00 0.00 47 1008.7
20260504214518 65 210 3.5 11.3 0.00 0.00 0.00 46 1008.8
20260504214010 66 222 3.5 12.2 0.00 0.00 0.00 47 1008.6
20260504213504 66 277 1.7 12.2 0.00 0.00 0.00 46 1008.6
20260504213010 66 236 2.6 12.2 0.00 0.00 0.00 46 1008.7
20260504212505 67 325 2.6 9.6 0.00 0.00 0.00 45 1008.5
20260504212006 67 321 1.7 10.4 0.00 0.00 0.00 46 1008.6
20260504211514 67 360 2.6 10.4 0.00 0.00 0.00 46 1008.5
20260504211003 67 349 3.5 11.3 0.00 0.00 0.00 44 1008.5
20260504210508 68 350 4.3 12.2 0.00 0.00 0.00 44 1008.4
20260504210022 68 352 3.5 12.2 0.00 0.00 0.00 41 1008.4
20260504205506 69 28 3.5 8.7 0.00 0.00 0.00 41 1008.4
20260504205005 69 243 1.7 8.7 0.00 0.00 0.00 42 1008.5
20260504204523 69 238 1.7 8.7 0.00 0.00 0.00 41 1008.4
20260504204009 69 340 3.5 10.4 0.00 0.00 0.00 43 1008.4
20260504203505 68 325 3.5 10.4 0.00 0.00 0.00 43 1008.5
20260504203011 68 347 3.5 9.6 0.00 0.00 0.00 43 1008.5
20260504202506 68 352 2.6 12.2 0.00 0.00 0.00 41 1008.3
20260504202004 69 237 3.5 12.2 0.00 0.00 0.00 40 1008.6
20260504201515 69 300 4.3 12.2 0.00 0.00 0.00 40 1008.5
20260504201005 69 301 4.3 13.0 0.00 0.00 0.00 39 1008.4
20260504200507 69 336 4.3 13.0 0.00 0.00 0.00 40 1008.4
20260504200012 70 331 5.2 12.2 0.00 0.00 0.00 39 1008.4
20260504195504 70 360 2.6 13.9 0.00 0.00 0.00 36 1008.3
20260504195007 70 37 4.3 13.9 0.00 0.00 0.00 37 1008.5
20260504194521 70 340 2.6 12.2 0.00 0.00 0.00 37 1008.4
20260504194004 70 310 3.5 12.2 0.00 0.00 0.00 39 1008.4
20260504193508 70 339 4.3 12.2 0.00 0.00 0.00 37 1008.5
20260504193028 70 240 4.3 12.2 0.00 0.00 0.00 40 1008.5
20260504192504 70 347 4.3 10.4 0.00 0.00 0.00 39 1008.6
20260504192007 68 288 3.5 10.4 0.00 0.00 0.00 40 1008.3
20260504191515 68 342 5.2 12.2 0.00 0.00 0.00 36 1008.3
20260504191003 70 347 3.5 12.2 0.00 0.00 0.00 40 1008.4
20260504190506 70 346 3.5 8.7 0.00 0.00 0.00 37 1008.4
20260504190015 70 325 2.6 8.7 0.00 0.00 0.00 36 1008.5
20260504185508 70 11 2.6 11.3 0.00 0.00 0.00 39 1008.5
20260504185006 70 13 2.6 11.3 0.00 0.00 0.00 38 1008.5
20260504184519 69 287 2.6 13.9 0.00 0.00 0.00 38 1008.6
20260504184007 69 350 5.2 13.9 0.00 0.00 0.00 38 1008.6
20260504183509 69 10 1.7 17.4 0.00 0.00 0.00 39 1008.5
20260504183014 68 224 5.2 17.4 0.00 0.00 0.00 38 1008.6
20260504182508 69 312 5.2 13.0 0.00 0.00 0.00 36 1008.8
20260504182006 70 286 4.3 12.2 0.00 0.00 0.00 36 1008.7
20260504181532 70 360 4.3 12.2 0.00 0.00 0.00 38 1008.7
20260504181009 69 333 3.5 12.2 0.00 0.00 0.00 38 1008.8
20260504180508 69 360 4.3 12.2 0.00 0.00 0.00 38 1008.7
20260504180027 69 86 3.5 10.4 0.00 0.00 0.00 36 1008.8
20260504175503 68 40 0.9 11.3 0.00 0.00 0.00 39 1008.9
20260504175006 69 325 5.2 14.8 0.00 0.00 0.00 36 1009.0
20260504174516 69 97 6.1 14.8 0.00 0.00 0.00 39 1009.1
20260504174004 68 320 3.5 11.3 0.00 0.00 0.00 39 1008.9
20260504173506 68 298 5.2 11.3 0.00 0.00 0.00 37 1009.1
20260504173020 69 158 4.3 11.3 0.00 0.00 0.00 34 1009.2
20260504172508 69 317 4.3 11.3 0.00 0.00 0.00 41 1009.1
20260504172010 69 9 3.5 12.2 0.00 0.00 0.00 38 1009.0
20260504171520 69 327 5.2 12.2 0.00 0.00 0.00 39 1009.0
20260504171008 69 21 3.5 10.4 0.00 0.00 0.00 36 1009.1
20260504170514 69 39 3.5 10.4 0.00 0.00 0.00 36 1009.3
20260504151002 66 327 5.2 14.8 0.00 0.00 0.00 36 1010.7
20260504150504 65 344 5.2 10.4 0.00 0.00 0.00 37 1010.8
20260504141004 63 344 3.5 9.6 0.00 0.00 0.00 44 1011.1
20260504140502 63 53 2.6 12.2 0.00 0.00 0.00 47 1011.1
20260504130508 59 113 1.7 8.7 0.00 0.00 0.00 53 1011.3
20260504110504 42 316 0.9 3.5 0.00 0.00 0.00 79 1011.6
20260504100507 36 38 0.0 0.0 0.00 0.00 0.00 87 1011.5
20260504082008 35 94 0.0 0.0 0.00 0.00 0.00 88 1010.8
20260504081524 35 94 0.0 0.0 0.00 0.00 0.00 88 1010.7
20260504081008 35 94 0.0 0.0 0.00 0.00 0.00 87 1010.7
20260504080509 36 94 0.0 0.0 0.00 0.00 0.00 87 1010.7
20260504050505 33 94 0.0 0.0 0.00 0.00 0.00 84 1010.8
20260504050013 33 94 0.0 0.0 0.00 0.00 0.00 84 1010.8
20260504045504 33 94 0.0 0.0 0.00 0.00 0.00 85 1010.9
20260504045006 33 94 0.0 0.0 0.00 0.00 0.00 84 1011.0
20260504044516 33 94 0.0 0.0 0.00 0.00 0.00 84 1011.0
20260504044003 33 94 0.0 0.0 0.00 0.00 0.00 83 1011.1
20260504043504 33 94 0.0 0.0 0.00 0.00 0.00 83 1011.1
20260504043018 33 94 0.0 0.0 0.00 0.00 0.00 83 1011.2
20260504042509 33 94 0.0 0.0 0.00 0.00 0.00 83 1011.1
20260504042004 33 94 0.0 0.0 0.00 0.00 0.00 83 1011.1
20260504041515 33 94 0.0 0.0 0.00 0.00 0.00 83 1011.0
20260504041004 33 94 0.0 0.0 0.00 0.00 0.00 82 1010.8
20260504040504 33 94 0.0 0.0 0.00 0.00 0.00 82 1010.8
20260504040008 34 94 0.0 0.0 0.00 0.00 0.00 82 1010.8
20260504035505 34 94 0.0 0.0 0.00 0.00 0.00 81 1010.8
20260504035005 34 94 0.0 0.0 0.00 0.00 0.00 81 1010.9
20260504034514 34 94 0.0 0.0 0.00 0.00 0.00 80 1010.8
20260504034005 34 94 0.0 0.0 0.00 0.00 0.00 80 1010.8
20260504033506 35 94 0.0 0.0 0.00 0.00 0.00 80 1010.7
20260504033033 35 94 0.0 0.0 0.00 0.00 0.00 80 1010.8
20260504032504 35 94 0.0 0.0 0.00 0.00 0.00 81 1010.8
20260504032007 35 94 0.0 0.0 0.00 0.00 0.00 81 1010.8
20260504031530 35 94 0.0 0.0 0.00 0.00 0.00 80 1010.7
20260504031006 35 94 0.0 0.0 0.00 0.00 0.00 80 1010.7
20260504030503 35 94 0.0 0.0 0.00 0.00 0.00 80 1010.6
20260504030021 35 94 0.0 0.0 0.00 0.00 0.00 78 1010.5
20260504025507 36 94 0.0 0.0 0.00 0.00 0.00 78 1010.6
20260504025003 36 94 0.0 0.0 0.00 0.00 0.00 77 1010.5
20260504024525 36 94 0.0 0.0 0.00 0.00 0.00 76 1010.4
20260504024007 36 94 0.0 0.0 0.00 0.00 0.00 75 1010.4
20260504023505 36 94 0.0 0.0 0.00 0.00 0.00 76 1010.4
20260504023014 37 94 0.0 0.0 0.00 0.00 0.00 76 1010.4
20260504022506 37 94 0.0 0.0 0.00 0.00 0.00 75 1010.4
20260504022014 37 94 0.0 0.0 0.00 0.00 0.00 74 1010.3
20260504021521 37 94 0.0 0.0 0.00 0.00 0.00 74 1010.3
20260504021003 37 94 0.0 0.0 0.00 0.00 0.00 74 1010.3
20260504020506 37 94 0.0 0.0 0.00 0.00 0.00 73 1010.3
20260504020026 38 94 0.0 0.0 0.00 0.00 0.00 72 1010.3
20260504015506 38 94 0.0 0.0 0.00 0.00 0.00 72 1010.4
20260504015007 38 94 0.0 0.0 0.00 0.00 0.00 71 1010.3
20260504014524 38 94 0.0 0.0 0.00 0.00 0.00 70 1010.2
20260504014010 38 94 0.0 0.0 0.00 0.00 0.00 69 1010.2
20260504013502 39 94 0.0 0.0 0.00 0.00 0.00 70 1010.2
20260504013003 39 94 0.0 0.0 0.00 0.00 0.00 70 1010.1
20260504012503 39 94 0.0 0.0 0.00 0.00 0.00 69 1010.1
20260504012003 39 94 0.0 0.0 0.00 0.00 0.00 67 1010.1
20260504011504 40 94 0.0 0.0 0.00 0.00 0.00 67 1010.1
20260504011003 40 94 0.0 0.0 0.00 0.00 0.00 65 1010.0
20260504010502 40 94 0.0 0.0 0.00 0.00 0.00 65 1009.9
20260504010004 41 94 0.0 0.0 0.00 0.00 0.00 65 1009.7
20260504005504 41 94 0.0 0.0 0.00 0.00 0.00 64 1009.7
20260504005002 41 94 0.0 0.0 0.00 0.00 0.00 65 1009.6
20260504004508 42 94 0.0 0.0 0.00 0.00 0.00 65 1009.5
20260504004003 42 94 0.0 0.0 0.00 0.00 0.00 65 1009.4
20260504003503 42 94 0.0 0.0 0.00 0.00 0.00 66 1009.4
20260504003004 43 94 0.0 0.0 0.00 0.00 0.00 64 1009.4
20260504002504 43 94 0.0 0.0 0.00 0.00 0.00 63 1009.3
20260504002002 44 94 0.0 1.7 0.00 0.00 0.00 62 1009.2
20260504001504 44 94 0.0 1.7 0.00 0.00 0.00 62 1009.1
20260504001002 45 94 0.0 0.9 0.00 0.00 0.00 56 1009.0
20260504000502 46 94 0.0 0.9 0.00 0.00 0.00 55 1008.9
20260504000004 46 94 0.0 0.9 0.00 0.00 0.00 54 1008.8
20260503235503 47 94 0.0 0.9 0.00 0.00 0.00 53 1008.8
20260503235003 47 94 0.0 0.9 0.00 0.00 0.00 50 1008.9
20260503234504 47 94 0.0 0.9 0.00 0.00 0.00 50 1008.9
20260503234003 48 360 0.0 0.9 0.00 0.00 0.00 51 1008.9
20260503233502 49 360 0.0 4.3 0.00 0.00 0.00 48 1008.8
20260503233004 49 352 0.9 4.3 0.00 0.00 0.00 48 1008.8
20260503232502 49 352 0.0 3.5 0.00 0.00 0.00 48 1008.7
20260503232004 49 18 1.7 3.5 0.00 0.00 0.00 48 1008.7